| time (UTC) | temp F | wind direction | speed MPH | gust MPH | rain 1hr in | rain 24hr in | rain mn in | humidity % | barometer mb |
| 20260901030100 | 59 | 203 | 4.0 | 12.0 | 0.01 | 0.01 | 0.01 | 75 | 1026.4 |
| 20260901024611 | 59 | 195 | 4.0 | 12.0 | 0.01 | 0.01 | 0.01 | 73 | 1026.4 |
| 20260901023101 | 62 | 255 | 6.0 | 19.0 | 0.00 | 0.00 | 0.00 | 68 | 1026.1 |
| 20260901021605 | 64 | 212 | 3.0 | 9.0 | 0.00 | 0.00 | 0.00 | 57 | 1024.9 |
| 20260901014606 | 63 | 186 | 2.0 | 8.0 | 0.00 | 0.00 | 0.00 | 58 | 1024.5 |
| 20260901013118 | 63 | 252 | 2.0 | 7.0 | 0.00 | 0.00 | 0.00 | 60 | 1024.5 |
| 20260901011608 | 62 | 270 | 0.0 | 5.0 | 0.00 | 0.00 | 0.00 | 62 | 1024.8 |
| 20260901010124 | 62 | 224 | 4.0 | 9.0 | 0.00 | 0.00 | 0.00 | 63 | 1024.9 |
| 20260901004615 | 61 | 184 | 4.0 | 12.0 | 0.00 | 0.00 | 0.00 | 66 | 1025.2 |
| 20260901003102 | 62 | 229 | 6.0 | 14.0 | 0.00 | 0.00 | 0.00 | 63 | 1025.1 |
| 20260901001605 | 65 | 187 | 3.0 | 9.0 | 0.00 | 0.00 | 0.00 | 58 | 1025.1 |
| 20260901000108 | 69 | 202 | 3.0 | 8.0 | 0.00 | 0.00 | 0.00 | 39 | 1024.8 |
| 20260831234633 | 70 | 198 | 1.0 | 5.0 | 0.00 | 0.00 | 0.00 | 37 | 1024.4 |
| 20260831233104 | 71 | 80 | 1.0 | 4.0 | 0.00 | 0.00 | 0.00 | 37 | 1024.5 |
| 20260831231604 | 72 | 187 | 2.0 | 5.0 | 0.00 | 0.00 | 0.00 | 37 | 1024.5 |
| 20260831230108 | 73 | 330 | 1.0 | 5.0 | 0.00 | 0.00 | 0.00 | 35 | 1024.6 |
| 20260831224604 | 73 | 23 | 0.0 | 6.0 | 0.00 | 0.00 | 0.00 | 34 | 1024.6 |
| 20260831223103 | 73 | 37 | 2.0 | 8.0 | 0.00 | 0.00 | 0.00 | 34 | 1024.6 |
| 20260831221607 | 73 | 44 | 2.0 | 9.0 | 0.00 | 0.00 | 0.00 | 34 | 1024.6 |
| 20260831220104 | 73 | 353 | 2.0 | 8.0 | 0.00 | 0.00 | 0.00 | 34 | 1024.6 |
| 20260831214618 | 74 | 20 | 2.0 | 6.0 | 0.00 | 0.00 | 0.00 | 33 | 1024.6 |
| 20260831213104 | 74 | 326 | 3.0 | 8.0 | 0.00 | 0.00 | 0.00 | 32 | 1024.6 |
| 20260831211605 | 74 | 20 | 2.0 | 6.0 | 0.00 | 0.00 | 0.00 | 31 | 1024.8 |
| 20260831204608 | 74 | 50 | 2.0 | 12.0 | 0.00 | 0.05 | 0.00 | 35 | 1025.1 |
| 20260831203106 | 74 | 36 | 4.0 | 10.0 | 0.00 | 0.05 | 0.00 | 37 | 1025.2 |
| 20260831201622 | 74 | 31 | 4.0 | 10.0 | 0.00 | 0.05 | 0.00 | 37 | 1025.2 |
| 20260831200107 | 75 | 24 | 3.0 | 8.0 | 0.00 | 0.05 | 0.00 | 37 | 1025.3 |
| 20260831194611 | 74 | 84 | 4.0 | 8.0 | 0.00 | 0.05 | 0.00 | 38 | 1025.5 |
| 20260831193136 | 72 | 1 | 3.0 | 10.0 | 0.00 | 0.05 | 0.00 | 40 | 1025.5 |
| 20260831191604 | 75 | 356 | 2.0 | 9.0 | 0.00 | 0.05 | 0.00 | 38 | 1025.6 |
| 20260831190106 | 73 | 86 | 2.0 | 7.0 | 0.00 | 0.05 | 0.00 | 40 | 1025.7 |
| 20260831184606 | 72 | 33 | 3.0 | 12.0 | 0.00 | 0.05 | 0.00 | 41 | 1025.9 |
| 20260831183108 | 71 | 58 | 3.0 | 7.0 | 0.00 | 0.05 | 0.00 | 42 | 1026.1 |
| 20260831181613 | 70 | 350 | 1.0 | 6.0 | 0.00 | 0.05 | 0.00 | 43 | 1026.1 |
| 20260831180109 | 69 | 72 | 2.0 | 5.0 | 0.00 | 0.05 | 0.00 | 44 | 1026.2 |
| 20260831174615 | 69 | 18 | 3.0 | 6.0 | 0.00 | 0.05 | 0.00 | 44 | 1026.3 |
| 20260831173106 | 69 | 34 | 4.0 | 6.0 | 0.00 | 0.05 | 0.00 | 44 | 1026.2 |
| 20260831171607 | 69 | 46 | 2.0 | 6.0 | 0.00 | 0.05 | 0.00 | 43 | 1026.4 |
| 20260831170107 | 69 | 338 | 2.0 | 5.0 | 0.00 | 0.05 | 0.00 | 43 | 1026.3 |
| 20260831164613 | 69 | 33 | 2.0 | 8.0 | 0.00 | 0.05 | 0.00 | 41 | 1026.2 |
| 20260831163101 | 70 | 7 | 4.0 | 7.0 | 0.00 | 0.05 | 0.00 | 40 | 1026.1 |
| 20260831161612 | 71 | 23 | 1.0 | 7.0 | 0.00 | 0.05 | 0.00 | 37 | 1026.0 |
| 20260831160111 | 72 | 13 | 0.0 | 6.0 | 0.00 | 0.05 | 0.00 | 35 | 1025.8 |
| 20260831154629 | 72 | 6 | 2.0 | 5.0 | 0.00 | 0.05 | 0.00 | 34 | 1025.8 |
| 20260831153104 | 73 | 27 | 0.0 | 3.0 | 0.00 | 0.05 | 0.00 | 34 | 1025.8 |
| 20260831151608 | 71 | 274 | 1.0 | 3.0 | 0.00 | 0.05 | 0.00 | 35 | 1025.9 |
| 20260831150107 | 69 | 0 | 0.0 | 3.0 | 0.00 | 0.05 | 0.00 | 38 | 1025.8 |
| 20260831144606 | 69 | 0 | 0.0 | 3.0 | 0.00 | 0.05 | 0.00 | 39 | 1025.8 |
| 20260831143116 | 66 | 0 | 0.0 | 5.0 | 0.00 | 0.05 | 0.00 | 42 | 1025.7 |
| 20260831141618 | 65 | 0 | 0.0 | 2.0 | 0.00 | 0.05 | 0.00 | 43 | 1025.6 |
| 20260831140115 | 64 | 0 | 0.0 | 3.0 | 0.00 | 0.05 | 0.00 | 44 | 1025.4 |
| 20260831134608 | 63 | 205 | 0.0 | 1.0 | 0.00 | 0.05 | 0.00 | 45 | 1025.2 |
| 20260831133104 | 64 | 261 | 1.0 | 3.0 | 0.00 | 0.05 | 0.00 | 43 | 1025.1 |
| 20260831131607 | 64 | 0 | 0.0 | 3.0 | 0.00 | 0.05 | 0.00 | 43 | 1025.1 |
| 20260831130111 | 66 | 0 | 0.0 | 3.0 | 0.00 | 0.05 | 0.00 | 39 | 1024.8 |
| 20260831124614 | 66 | 221 | 1.0 | 5.0 | 0.00 | 0.05 | 0.00 | 38 | 1024.6 |
| 20260831123105 | 66 | 0 | 2.0 | 8.0 | 0.00 | 0.05 | 0.00 | 39 | 1024.4 |
| 20260831121609 | 64 | 212 | 0.0 | 3.0 | 0.00 | 0.05 | 0.00 | 42 | 1024.3 |
| 20260831120103 | 65 | 0 | 0.0 | 6.0 | 0.00 | 0.05 | 0.00 | 42 | 1024.2 |
| 20260831114602 | 65 | 203 | 3.0 | 7.0 | 0.00 | 0.05 | 0.00 | 41 | 1024.2 |
| 20260831113105 | 62 | 0 | 0.0 | 3.0 | 0.00 | 0.05 | 0.00 | 46 | 1024.1 |
| 20260831111606 | 63 | 0 | 0.0 | 4.0 | 0.00 | 0.05 | 0.00 | 44 | 1024.2 |
| 20260831104611 | 63 | 235 | 2.0 | 7.0 | 0.00 | 0.05 | 0.00 | 43 | 1024.1 |
| 20260831103106 | 63 | 241 | 1.0 | 6.0 | 0.00 | 0.05 | 0.00 | 44 | 1024.0 |
| 20260831101606 | 64 | 231 | 4.0 | 9.0 | 0.00 | 0.05 | 0.00 | 42 | 1024.0 |
| 20260831100124 | 63 | 213 | 2.0 | 6.0 | 0.00 | 0.05 | 0.00 | 43 | 1023.9 |
| 20260831094607 | 63 | 195 | 1.0 | 6.0 | 0.00 | 0.05 | 0.00 | 44 | 1023.7 |
| 20260831093132 | 63 | 221 | 2.0 | 6.0 | 0.00 | 0.05 | 0.00 | 44 | 1023.6 |
| 20260831091606 | 63 | 0 | 1.0 | 3.0 | 0.00 | 0.05 | 0.00 | 43 | 1023.6 |
| 20260831090129 | 63 | 193 | 2.0 | 10.0 | 0.00 | 0.05 | 0.00 | 43 | 1023.6 |
| 20260831084604 | 64 | 219 | 2.0 | 5.0 | 0.00 | 0.05 | 0.00 | 42 | 1023.6 |
| 20260831083113 | 63 | 190 | 2.0 | 7.0 | 0.00 | 0.05 | 0.00 | 42 | 1023.6 |
| 20260831081606 | 64 | 171 | 0.0 | 4.0 | 0.00 | 0.05 | 0.00 | 42 | 1023.7 |
| 20260831080129 | 64 | 203 | 1.0 | 7.0 | 0.00 | 0.05 | 0.00 | 42 | 1023.8 |
| 20260831074606 | 64 | 195 | 2.0 | 6.0 | 0.00 | 0.05 | 0.00 | 43 | 1024.0 |
| 20260831073105 | 63 | 180 | 2.0 | 10.0 | 0.00 | 0.05 | 0.00 | 44 | 1024.3 |
| 20260831071605 | 63 | 181 | 2.0 | 7.0 | 0.00 | 0.05 | 0.00 | 45 | 1024.5 |
| 20260831070112 | 63 | 244 | 3.0 | 9.0 | 0.00 | 0.05 | 0.00 | 46 | 1024.6 |
| 20260831064608 | 63 | 224 | 6.0 | 14.0 | 0.00 | 0.05 | 0.00 | 47 | 1024.6 |
| 20260831063114 | 63 | 153 | 4.0 | 12.0 | 0.00 | 0.05 | 0.00 | 48 | 1024.5 |
| 20260831061612 | 63 | 228 | 4.0 | 12.0 | 0.00 | 0.05 | 0.00 | 49 | 1024.4 |
| 20260831060109 | 62 | 188 | 1.0 | 8.0 | 0.00 | 0.05 | 0.00 | 51 | 1024.3 |
| 20260831054611 | 61 | 223 | 3.0 | 10.0 | 0.00 | 0.05 | 0.05 | 51 | 1024.5 |
| 20260831053132 | 61 | 0 | 1.0 | 9.0 | 0.00 | 0.05 | 0.05 | 52 | 1024.8 |
| 20260831051606 | 61 | 139 | 1.0 | 13.0 | 0.00 | 0.05 | 0.05 | 52 | 1025.0 |
| 20260831050109 | 62 | 203 | 6.0 | 16.0 | 0.00 | 0.05 | 0.05 | 50 | 1025.8 |
| 20260831044645 | 64 | 262 | 4.0 | 21.0 | 0.00 | 0.05 | 0.05 | 48 | 1026.1 |
| 20260831043107 | 66 | 217 | 4.0 | 10.0 | 0.00 | 0.05 | 0.05 | 46 | 1025.7 |
| 20260831041617 | 66 | 179 | 5.0 | 16.0 | 0.00 | 0.05 | 0.05 | 44 | 1025.7 |
| 20260831040109 | 66 | 208 | 4.0 | 8.0 | 0.00 | 0.05 | 0.05 | 45 | 1024.9 |
| 20260831034609 | 66 | 221 | 3.0 | 8.0 | 0.00 | 0.05 | 0.05 | 44 | 1024.8 |
| 20260831033110 | 66 | 165 | 3.0 | 6.0 | 0.00 | 0.05 | 0.05 | 44 | 1024.6 |
| 20260831031605 | 66 | 222 | 3.0 | 9.0 | 0.00 | 0.05 | 0.05 | 44 | 1024.7 |